This demonstration page uses our WeatherBlox Daily Observations layout. Learn more.

36.17497, -115.13722

Hourly Observations for May 24, 2015

Temp ( °F °C ) Dew Point ( °F °C ) Humidity (%) Winds ( mph kmh ) Pressure ( in mb ) Visibility ( mi km ) Precip ( " mm )
12:53 am 00:53 Cloudy 72 22.2 43 6.1 35 35 NW 7 11 29.85 1011 10 16.0934 0 0
1:53 am 01:53 Mostly Cloudy 71 21.7 44 6.7 38 38 N 8 13 29.83 1010 10 16.0934 0 0
2:53 am 02:53 Cloudy 70 21.1 45 7.2 41 41 NNE 5 7 29.84 1011 10 16.0934 0 0
3:53 am 03:53 Cloudy 70 21.1 45 7.2 41 41 NNE 6 9 29.84 1011 10 16.0934 0 0
4:53 am 04:53 Mostly Cloudy 69 20.6 45 7.2 42 42 N 3 6 29.85 1011 10 16.0934 0 0
5:53 am 05:53 Mostly Sunny 68 20 46 7.8 45 45 N 10 17 29.86 1011 10 16.0934 0 0
6:53 am 06:53 Mostly Cloudy 67 19.4 48 8.9 51 51 N 14 22 29.88 1012 10 16.0934 0 0
7:53 am 07:53 Cloudy 68 20 46 7.8 45 45 NNE 6 9 29.89 1012 10 16.0934 0 0.0254
8:53 am 08:53 Mostly Cloudy 69 20.6 45 7.2 42 42 NE 3 6 29.91 1013 10 16.0934 0 0
9:53 am 09:53 Mostly Cloudy 71 21.7 46 7.8 41 41 Calm 29.91 1013 10 16.0934 0 0
10:53 am 10:53 Mostly Cloudy 71 21.7 47 8.3 42 42 SE 6 9 29.91 1013 10 16.0934 0 0
11:53 am 11:53 Sunny 76 24.4 46 7.8 35 35 Calm 29.88 1012 10 16.0934 0 0
12:53 pm 12:53 Sunny 78 25.6 45 7.2 31 31 VRB 7 11 29.86 1011 10 16.0934 0 0
1:53 pm 13:53 Mostly Cloudy 75 23.9 47 8.3 37 37 ENE 17 28 29.85 1011 10 16.0934 0 0
2:53 pm 14:53 Partly Cloudy 77 25 44 6.7 31 31 VRB 5 7 29.83 1010 10 16.0934 0 0
3:53 pm 15:53 Sunny 79 26.1 43 6.1 28 28 S 9 15 29.8 1009 10 16.0934 0 0
4:53 pm 16:53 Mostly Sunny 79 26.1 41 5 26 26 WSW 7 11 29.79 1009 10 16.0934 0 0
5:53 pm 17:53 Sunny 80 26.7 41 5 25 25 VRB 3 6 29.77 1008 10 16.0934 0 0
6:53 pm 18:53 Sunny 80 26.7 42 5.6 26 26 W 8 13 29.77 1008 10 16.0934 0 0
7:53 pm 19:53 Mostly Cloudy 79 26.1 41 5 26 26 S 7 11 29.79 1009 10 16.0934 0 0
8:21 pm 20:21 Cloudy 74 23.3 47 8.3 38 38 ENE 15 24 29.68 1005 10 16.0934 0 0
8:53 pm 20:53 Partly Cloudy 73 22.8 46 7.8 38 38 E 13 20 29.82 1010 10 16.0934 0 0
9:53 pm 21:53 Cloudy with Light Rain 72 22.2 52 11.1 50 50 NE 6 9 29.86 1011 10 16.0934 0 0.0254
10:53 pm 22:53 Cloudy with Light Rain 69 20.6 50 10 51 51 undefined N/A 29.91 1013 10 16.0934 0.01 0.254
11:53 pm 23:53 Clear 63 17.2 52 11.1 68 68 E 14 22 29.91 1013 10 16.0934 0.01 0.254

Powered by AerisWeather